• In Deutschland
  • Länderverzeichnis
  • Für 7 Tage
  • Wassertemperatur
  • Satellitenkarten
  • Wetterkarte
  • Widgets
  • user-avatar
    Anmelden

    Stündliche Wetter Jena

    Heute, 17 August, Freitag

    Zeit Temperatur Niederschläge Wind Luftdruck Luftfeuchtigkeit
    00:00 +22°C° 0 mm 1 m/S 745 mmHg 66%
    01:00 +21°C° 0 mm 1 m/S 745 mmHg 66%
    02:00 +20°C° 0 mm 2 m/S 745 mmHg 67%
    03:00 +20°C° 0 mm 2 m/S 745 mmHg 69%
    04:00 +19°C° 0 mm 2 m/S 745 mmHg 70%
    05:00 +20°C° 0 mm 2 m/S 745 mmHg 69%
    06:00 +21°C° 0 mm 2 m/S 745 mmHg 68%
    07:00 +23°C° 0 mm 2 m/S 745 mmHg 66%
    08:00 +25°C° 0,1 mm 2 m/S 745 mmHg 61%
    09:00 +27°C° 0,1 mm 2 m/S 746 mmHg 55%
    10:00 +29°C° 0,1 mm 2 m/S 746 mmHg 50%
    11:00 +29°C° 0 mm 2 m/S 746 mmHg 48%
    12:00 +30°C° 0 mm 2 m/S 746 mmHg 46%
    13:00 +31°C° 0 mm 2 m/S 745 mmHg 43%
    14:00 +31°C° 0 mm 1 m/S 745 mmHg 44%
    15:00 +30°C° 0 mm 1 m/S 745 mmHg 45%
    16:00 +30°C° 0 mm 1 m/S 745 mmHg 46%
    17:00 +29°C° 0,1 mm 1 m/S 745 mmHg 52%
    18:00 +27°C° 0,1 mm 2 m/S 745 mmHg 58%
    19:00 +26°C° 0,1 mm 2 m/S 746 mmHg 63%
    20:00 +24°C° 2,2 mm 2 m/S 746 mmHg 72%
    21:00 +21°C° 2,2 mm 3 m/S 747 mmHg 81%
    22:00 +20°C° 2,2 mm 3 m/S 747 mmHg 89%
    23:00 +19°C° 1,2 mm 3 m/S 748 mmHg 91%

    Morgen, 18 August, Samstag

    Zeit Temperatur Niederschläge Wind Luftdruck Luftfeuchtigkeit
    00:00 +19°C° 1,2 mm 2 m/S 748 mmHg 92%
    01:00 +19°C° 1,2 mm 2 m/S 748 mmHg 94%
    02:00 +19°C° 0,4 mm 2 m/S 748 mmHg 94%
    03:00 +18°C° 0,4 mm 2 m/S 748 mmHg 94%
    04:00 +18°C° 0,4 mm 2 m/S 748 mmHg 95%
    05:00 +18°C° 0,1 mm 2 m/S 749 mmHg 93%
    06:00 +19°C° 0,1 mm 2 m/S 749 mmHg 92%
    07:00 +19°C° 0,1 mm 2 m/S 749 mmHg 91%
    08:00 +19°C° 0 mm 2 m/S 749 mmHg 88%
    09:00 +20°C° 0 mm 2 m/S 750 mmHg 84%
    10:00 +21°C° 0 mm 2 m/S 750 mmHg 81%
    11:00 +23°C° 0 mm 2 m/S 750 mmHg 76%
    12:00 +24°C° 0 mm 2 m/S 750 mmHg 72%
    13:00 +24°C° 0 mm 2 m/S 750 mmHg 67%
    14:00 +25°C° 0 mm 2 m/S 749 mmHg 65%
    15:00 +26°C° 0 mm 1 m/S 749 mmHg 63%
    16:00 +26°C° 0 mm 1 m/S 749 mmHg 60%
    17:00 +25°C° 0 mm 1 m/S 749 mmHg 64%
    18:00 +24°C° 0 mm 1 m/S 749 mmHg 68%
    19:00 +23°C° 0 mm 1 m/S 749 mmHg 72%
    20:00 +22°C° 0 mm 1 m/S 749 mmHg 75%
    21:00 +21°C° 0 mm 1 m/S 750 mmHg 78%
    22:00 +20°C° 0 mm 1 m/S 750 mmHg 80%
    23:00 +20°C° 0 mm 1 m/S 750 mmHg 81%

    übermorgen, 19 August, Sonntag

    Zeit Temperatur Niederschläge Wind Luftdruck Luftfeuchtigkeit
    00:00 +19°C° 0 mm 1 m/S 750 mmHg 82%
    01:00 +19°C° 0 mm 1 m/S 750 mmHg 84%
    02:00 +19°C° 0 mm 1 m/S 750 mmHg 84%
    03:00 +16°C° 0 mm 0 m/S 750 mmHg 84%
    04:00 +16°C° 0 mm 0 m/S 750 mmHg 85%
    05:00 +17°C° 0 mm 0 m/S 750 mmHg 82%
    06:00 +18°C° 0 mm 0 m/S 750 mmHg 79%
    07:00 +19°C° 0 mm 0 m/S 750 mmHg 76%
    08:00 +22°C° 0 mm 1 m/S 750 mmHg 69%
    09:00 +24°C° 0 mm 1 m/S 751 mmHg 62%
    10:00 +26°C° 0 mm 1 m/S 751 mmHg 56%
    11:00 +27°C° 0 mm 1 m/S 750 mmHg 52%
    12:00 +27°C° 0 mm 0 m/S 750 mmHg 48%
    13:00 +28°C° 0 mm 0 m/S 750 mmHg 44%
    14:00 +30°C° 0 mm 1 m/S 749 mmHg 44%
    15:00 +29°C° 0 mm 1 m/S 749 mmHg 43%
    16:00 +29°C° 0 mm 1 m/S 748 mmHg 43%
    17:00 +28°C° 0 mm 1 m/S 748 mmHg 48%
    18:00 +26°C° 0 mm 1 m/S 748 mmHg 54%
    19:00 +25°C° 0 mm 1 m/S 748 mmHg 60%
    20:00 +24°C° 0 mm 1 m/S 748 mmHg 62%
    21:00 +23°C° 0 mm 1 m/S 748 mmHg 64%
    22:00 +22°C° 0 mm 1 m/S 749 mmHg 67%
    23:00 +22°C° 0 mm 1 m/S 748 mmHg 69%

    20 August, Montag

    Zeit Temperatur Niederschläge Wind Luftdruck Luftfeuchtigkeit
    00:00 +21°C° 0 mm 1 m/S 748 mmHg 71%
    01:00 +21°C° 0 mm 1 m/S 748 mmHg 73%
    02:00 +20°C° 0 mm 1 m/S 748 mmHg 75%
    03:00 +20°C° 0 mm 1 m/S 748 mmHg 76%
    04:00 +20°C° 0 mm 1 m/S 748 mmHg 78%
    05:00 +20°C° 0 mm 1 m/S 748 mmHg 76%
    06:00 +21°C° 0 mm 1 m/S 748 mmHg 74%
    07:00 +22°C° 0 mm 1 m/S 748 mmHg 72%
    08:00 +24°C° 0 mm 1 m/S 748 mmHg 65%
    09:00 +26°C° 0 mm 1 m/S 748 mmHg 58%
    10:00 +28°C° 0 mm 2 m/S 748 mmHg 51%
    11:00 +28°C° 0 mm 2 m/S 748 mmHg 48%
    12:00 +29°C° 0 mm 2 m/S 748 mmHg 45%
    13:00 +30°C° 0 mm 3 m/S 747 mmHg 42%
    14:00 +30°C° 0 mm 3 m/S 747 mmHg 42%
    15:00 +30°C° 0 mm 3 m/S 747 mmHg 43%
    16:00 +30°C° 0 mm 3 m/S 747 mmHg 43%
    17:00 +29°C° 0 mm 3 m/S 747 mmHg 50%
    18:00 +27°C° 0 mm 3 m/S 747 mmHg 57%
    19:00 +25°C° 0 mm 2 m/S 747 mmHg 64%
    20:00 +24°C° 0 mm 2 m/S 747 mmHg 69%
    21:00 +23°C° 0 mm 2 m/S 747 mmHg 74%
    22:00 +22°C° 0 mm 1 m/S 748 mmHg 78%
    23:00 +21°C° 0 mm 1 m/S 748 mmHg 81%

    21 August, Dienstag

    Zeit Temperatur Niederschläge Wind Luftdruck Luftfeuchtigkeit
    00:00 +21°C° 0 mm 1 m/S 748 mmHg 83%
    01:00 +20°C° 0 mm 1 m/S 748 mmHg 86%
    02:00 +20°C° 0 mm 1 m/S 748 mmHg 88%
    03:00 +19°C° 0 mm 1 m/S 748 mmHg 90%
    04:00 +19°C° 0 mm 1 m/S 748 mmHg 93%
    05:00 +19°C° 0 mm 1 m/S 749 mmHg 90%
    06:00 +20°C° 0 mm 1 m/S 749 mmHg 87%
    07:00 +21°C° 0 mm 1 m/S 749 mmHg 84%
    08:00 +22°C° 0 mm 1 m/S 749 mmHg 78%
    09:00 +23°C° 0 mm 1 m/S 749 mmHg 72%
    10:00 +25°C° 0 mm 2 m/S 749 mmHg 66%
    11:00 +25°C° 0 mm 2 m/S 749 mmHg 64%
    12:00 +26°C° 0 mm 2 m/S 749 mmHg 61%
    13:00 +27°C° 0 mm 2 m/S 749 mmHg 59%
    14:00 +27°C° 0 mm 2 m/S 749 mmHg 57%
    15:00 +27°C° 0 mm 2 m/S 748 mmHg 56%
    16:00 +27°C° 0 mm 2 m/S 748 mmHg 55%
    17:00 +26°C° 0 mm 1 m/S 748 mmHg 59%
    18:00 +25°C° 0 mm 1 m/S 748 mmHg 63%
    19:00 +24°C° 0 mm 1 m/S 748 mmHg 68%
    20:00 +23°C° 0 mm 1 m/S 748 mmHg 71%
    21:00 +22°C° 0 mm 1 m/S 748 mmHg 74%
    22:00 +21°C° 0 mm 1 m/S 748 mmHg 77%
    23:00 +21°C° 0 mm 1 m/S 748 mmHg 78%

    22 August, Mittwoch

    Zeit Temperatur Niederschläge Wind Luftdruck Luftfeuchtigkeit
    00:00 +20°C° 0 mm 1 m/S 748 mmHg 80%
    01:00 +20°C° 0 mm 1 m/S 748 mmHg 82%
    02:00 +20°C° 0 mm 1 m/S 748 mmHg 83%
    03:00 +19°C° 0 mm 1 m/S 748 mmHg 84%
    04:00 +19°C° 0 mm 1 m/S 748 mmHg 85%
    05:00 +20°C° 0 mm 1 m/S 748 mmHg 82%
    06:00 +21°C° 0 mm 1 m/S 748 mmHg 80%
    07:00 +22°C° 0 mm 1 m/S 748 mmHg 77%
    08:00 +24°C° 0 mm 1 m/S 748 mmHg 69%
    09:00 +25°C° 0 mm 1 m/S 748 mmHg 61%
    10:00 +27°C° 0 mm 2 m/S 748 mmHg 53%
    11:00 +28°C° 0 mm 2 m/S 748 mmHg 50%
    12:00 +29°C° 0 mm 2 m/S 748 mmHg 47%
    13:00 +29°C° 0 mm 2 m/S 748 mmHg 45%
    14:00 +29°C° 0 mm 2 m/S 748 mmHg 46%
    15:00 +29°C° 0 mm 2 m/S 748 mmHg 47%
    16:00 +29°C° 0 mm 2 m/S 747 mmHg 48%
    17:00 +28°C° 0 mm 2 m/S 747 mmHg 54%
    18:00 +26°C° 0 mm 2 m/S 747 mmHg 61%
    19:00 +25°C° 0 mm 2 m/S 747 mmHg 67%
    20:00 +23°C° 0 mm 2 m/S 748 mmHg 71%
    21:00 +21°C° 0 mm 2 m/S 748 mmHg 75%
    22:00 +21°C° 0 mm 1 m/S 748 mmHg 79%
    23:00 +21°C° 0 mm 1 m/S 748 mmHg 81%
    Mehr zeigen